Weather History for Idabel, OK

Change the Weather History Date:

Thursday, October 20, 2011

  Actual Average (KDEQ) Record (KDEQ)
Temperature  
Mean Temperature 56 °F 62 °F  
Max Temperature 71 °F 75 °F 90 °F (1969)
Min Temperature 42 °F 49 °F 27 °F (1989)
Degree Days  
Heating Degree Days 8 5  
Month to date heating degree days 58  
Since 1 July heating degree days 67  
Cooling Degree Days 0 2  
Month to date cooling degree days 54  
Year to date cooling degree days 1919  
Growing Degree Days 6 (Base 50)    
Moisture  
Dew Point 27 °F    
Average Humidity 30    
Maximum Humidity 70    
Minimum Humidity 17    
Precipitation  
Precipitation 0.00 in 0.15 in 3.11 in (1993)
Month to date precipitation 2.98  
Year to date precipitation 38.18  
Snow  
Snow 0.00 in - - ()
Month to date snowfall  
Since 1 July snowfall  
Since 1 September snowfall  
Snow Depth -    
Sea Level Pressure  
Sea Level Pressure 30.09 in    
Wind  
Wind Speed 4 mph (NW)    
Max Wind Speed 10 mph    
Max Gust Speed 22 mph    
Visibility 10 miles    
Events      
T = Trace of Precipitation, MM = Missing Value Source: NWS Daily Summary

Daily Weather History Graph

Daily Weather History Graph

Search for Another Location

Airport:

Trip Planner

Search our weather history database for the weather conditions in past years. The results will help you decide how hot, cold, wet, or windy it might be!

Date:

Astronomy

Oct. 20, 2011 Rise Set
Actual Time 7:28 AM CDT 6:39 PM CDT
Civil Twilight 7:02 AM CDT 7:04 PM CDT
Nautical Twilight 6:33 AM CDT 7:34 PM CDT
Astronomical Twilight 6:04 AM CDT 8:03 PM CDT
Moon 12:33 AM CDT (10/20) 2:31 PM CDT (10/20)
Length of Visible Light 12h 02m
Length of Day
11h 11m
Last Quarter, 44% of the Moon is Illuminated
Oct 20
Last Quarter
Oct 26
New
Nov 2
First Quarter
Nov 10
Full
Nov 18
Last Quarter

Hourly Weather History & Observations

Time (CDT) Temp. Dew Point Humidity Pressure Visibility Wind Dir Wind Speed Gust Speed Precip Events Conditions
9:15 AM 42.8 °F 33.8 °F 70% 30.13 in 10.0 mi Calm Calm - N/A   Clear
10:15 AM 53.6 °F 28.4 °F 38% 30.13 in 10.0 mi Calm Calm - N/A   Clear
10:35 AM 55.4 °F 26.6 °F 33% 30.14 in 10.0 mi WNW 3.5 mph - N/A   Clear
10:55 AM 57.2 °F 26.6 °F 31% 30.14 in 10.0 mi NW 5.8 mph - N/A   Clear
11:15 AM 59.0 °F 26.6 °F 29% 30.14 in 10.0 mi NNW 5.8 mph - N/A   Clear
11:35 AM 60.8 °F 24.8 °F 25% 30.14 in 10.0 mi NW 5.8 mph - N/A   Clear
11:55 AM 60.8 °F 24.8 °F 25% 30.13 in 10.0 mi NW 8.1 mph - N/A   Clear
12:15 PM 62.6 °F 26.6 °F 26% 30.13 in 10.0 mi WNW 10.4 mph - N/A   Clear
12:35 PM 62.6 °F 24.8 °F 24% 30.12 in 10.0 mi NNW 10.4 mph 21.9 mph N/A   Clear
12:55 PM 64.4 °F 24.8 °F 22% 30.11 in 10.0 mi NW 5.8 mph - N/A   Clear
1:15 PM 64.4 °F 26.6 °F 24% 30.10 in 10.0 mi NNW 4.6 mph - N/A   Clear
1:35 PM 66.2 °F 24.8 °F 21% 30.09 in 10.0 mi NW 6.9 mph - N/A   Clear
1:55 PM 66.2 °F 24.8 °F 21% 30.08 in 10.0 mi NE 3.5 mph - N/A   Clear
2:15 PM 68.0 °F 24.8 °F 20% 30.07 in 10.0 mi WNW 4.6 mph 9.2 mph N/A   Clear
2:35 PM 68.0 °F 24.8 °F 20% 30.06 in 10.0 mi West 8.1 mph - N/A   Clear
3:35 PM 69.8 °F 24.8 °F 18% 30.05 in 10.0 mi WNW 5.8 mph - N/A   Clear
4:35 PM 69.8 °F 26.6 °F 20% 30.04 in 10.0 mi Calm Calm - N/A   Clear
4:55 PM 71.6 °F 24.8 °F 17% 30.04 in 10.0 mi Calm Calm - N/A   Clear
5:15 PM 69.8 °F 26.6 °F 20% 30.04 in 10.0 mi SSW 3.5 mph - N/A   Clear
5:35 PM 68.0 °F 26.6 °F 21% 30.04 in 10.0 mi ENE 3.5 mph - N/A   Clear
5:55 PM 66.2 °F 28.4 °F 24% 30.04 in 10.0 mi WSW 4.6 mph - N/A   Clear
6:15 PM 64.4 °F 30.2 °F 28% 30.04 in 10.0 mi NNW 4.6 mph - N/A   Clear
6:35 PM 60.8 °F 30.2 °F 31% 30.04 in 10.0 mi South 3.5 mph - N/A   Clear
7:15 PM 59.0 °F 30.2 °F 34% 30.06 in 10.0 mi Calm Calm - N/A   Clear
7:35 PM 55.4 °F 30.2 °F 38% 30.06 in 10.0 mi Calm Calm - N/A   Clear
8:15 PM 51.8 °F 32.0 °F 47% 30.08 in 10.0 mi South 3.5 mph - N/A   Clear
8:35 PM 51.8 °F 32.0 °F 47% 30.08 in 10.0 mi Calm Calm - N/A   Clear
9:55 PM 46.4 °F 33.8 °F 62% 30.12 in 10.0 mi Calm Calm - N/A   Clear